Regional Weather Roundup
Issued by NWS

Home | Current Version | Previous Version | Text Only | Print | Product List | Glossary Off
Versions: 1 2 3 4 5 6 7 8 9 10 11 12 13 14 15 16 17 18 19 20 21 22 23 24 25 26 27 28 29 30 31 32 33 34 35 36 37 38 39 40 41 42 43 44 45 46 47 48 49 50

000
ASUS45 KBOU 280007
RWRCO

WEATHER ROUNDUP FOR COLORADO
NATIONAL WEATHER SERVICE DENVER/BOULDER CO
600 PM MDT WED MAY 27 2015

NOTE: "FAIR" INDICATES FEW OR NO CLOUDS BELOW 12000 FEET WITH NO
SIGNIFICANT WEATHER AND/OR OBSTRUCTIONS TO VISIBILITY.

COZ001>005-013-030-031-280100-
...NORTHWEST COLORADO...

CITY           SKY/WX    TMP DP  RH WIND       PRES   REMARKS
CRAIG          CLOUDY    64  42  44 E7        30.09F
HAYDEN         CLOUDY    61  37  41 E8        30.11S
MEEKER         CLOUDY    61  46  57 SE6       30.09F
MOUNT WERNER   NOT AVBL
STEAMBOAT SPGS CLOUDY    60  39  46 E3        30.13F
WALDEN         PTSUNNY   52  34  50 W14       30.19F
$$

COZ006>008-011-280100-
...WEST CENTRAL VALLEYS...

CITY           SKY/WX    TMP DP  RH WIND       PRES   REMARKS
GRAND JUNCTION PTSUNNY   74  39  28 VRB3      29.99F
MONTROSE       CLOUDY    68  40  35 SE22G30   30.11R
EAGLE          MOSUNNY   63  39  42 W6        30.14F
RIFLE          PTSUNNY   67  47  48 E7        30.03F
DELTA          CLOUDY    76  33  20 W8        30.04R
NUCLA          CLOUDY    68  34  28 CALM      30.12S
$$

COZ017>023-064>068-280100-
...SOUTHWEST COLORADO...

CITY           SKY/WX    TMP DP  RH WIND       PRES   REMARKS
DURANGO        MOSUNNY   69  26  20 W12       30.11F
CORTEZ         SUNNY     73  36  25 S14       30.07F
PAGOSA SPRINGS MOSUNNY   69  19  15 W15G24    30.17F
TELLURIDE      TSTM      49  37  61 CALM      30.30F
WOLF CREEK PAS NOT AVBL
$$

COZ009-010-012-014-032>034-037-058>063-280100-
...CENTRAL COLORADO...

CITY           SKY/WX    TMP DP  RH WIND       PRES   REMARKS
ASPEN          PTSUNNY   61  37  41 NW8       30.17S
BUENA VISTA    CLOUDY    57  36  45 S17       30.20R
COPPER MTN     PTSUNNY   45  30  57 W9G18     30.40S
BERTHOUD PASS  FAIR      34  28  80 W12G20    30.43F WCI  25
COTTONWOOD PAS CLOUDY    52  36  54 CALM      30.31R
GUNNISON       CLOUDY    50  36  57 W21G31    30.29R
KREMMLING      CLOUDY    61  32  33 W15       30.16S
LEADVILLE      PTSUNNY   53  28  38 W8        30.25F
MONARCH PASS   CLOUDY    36  32  87 W22       30.52R THUNDER
SALIDA         CLOUDY    59  40  49 SW14G28   30.25S
SUNLIGHT       PTSUNNY   46  36  66 CALM      30.36S
WILKERSON PASS CLOUDY    48  32  53 SW8       30.37F
$$

COZ069>075-280100-
...SAN LUIS VALLEY/SANGRE DE CRISTO MOUNTAINS...

CITY           SKY/WX    TMP DP  RH WIND       PRES   REMARKS
ALAMOSA        PTSUNNY   66  31  27 W15       30.14S
LA VETA PASS   CLOUDY   N/A N/A N/A MISG      30.30S
SAGUACHE       LGT RAIN  55  43  62 N12       30.18F
$$

COZ035-036-038>040-280100-
...NORTHERN COLORADO FRONT RANGE...

CITY           SKY/WX    TMP DP  RH WIND       PRES   REMARKS
DENVER INTL AP PTSUNNY   70  47  43 SE9       30.00S
DMNS CITY PARK   N/A     71  40  32 N1G10     29.99S
AURORA         PTSUNNY   69  46  44 SE10      30.02F
FRONT RANGE AP PTSUNNY   73  46  38 SE9       30.02S
ERIE MUNI ARPT PTSUNNY   75  38  26 E5        29.98F
BOULDER MUN AP PTSUNNY   73  43  33 E5        29.99S
CENTENNIAL     PTSUNNY   67  46  47 E7        30.03S
BROOMFIELD     NOT AVBL
FORT COLLINS   PTSUNNY   75  45  33 E5        29.98F
LONGMONT       PTSUNNY   77  42  28 CALM      30.00S
$$

COZ041-046-047-076>085-087-088-280100-
...PIKES PEAK/PALMER DIVIDE AND SOUTHERN FOOTHILLS...

CITY           SKY/WX    TMP DP  RH WIND       PRES   REMARKS
COLO. SPRINGS  PTSUNNY   73  33  23 VRB3      30.05R
A. F. ACADEMY  PTSUNNY   70  33  25 W13       30.05S
ELLICOTT       NOT AVBL
FALCON         PTSUNNY   68  33  28 SW7       30.10S
FORT CARSON    NOT AVBL
LIMON          PTSUNNY   66  50  56 E8        30.03F
MONUMENT HILL  PTSUNNY   63  43  48 N7        30.11S
TRINIDAD       TSTM      55  50  83 W13       30.09R
$$

COZ042>045-048>051-090-091-280100-
...NORTHEAST COLORADO...

CITY           SKY/WX    TMP DP  RH WIND       PRES   REMARKS
GREELEY ARPT   MOSUNNY   77  43  29 SE5       29.98S
AKRON          SUNNY     73  47  39 S13       29.98F
BURLINGTON     PTSUNNY   69  56  62 SE26G32   29.98S
WRAY           CLOUDY    74  58  58 E18G30    30.00R
STERLING       SUNNY     72  55  56 E12G18    29.95F
HOLYOKE        CLOUDY    64  55  72 SE16G32   30.01R
FORT MORGAN    SUNNY     75  42  30 CALM      29.98S
$$

COZ086-089-092>099-280100-
...SOUTHEAST COLORADO...

CITY           SKY/WX    TMP DP  RH WIND       PRES   REMARKS
PUEBLO         CLOUDY    70  52  52 N6        29.99F
LA JUNTA       CLOUDY    77  44  30 SW24G30   29.97R
LAMAR          CLOUDY    72  48  42 S18       29.93F
SPRINGFIELD      N/A     65  53  65 NE15      29.99F
$$



USA.gov is the U.S. government's official web portal to all federal, state and local government web resources and services.